Regional Weather Roundup
Issued by NWS Charleston, SC

Current Version | Previous Version | Text Only | Print | Product List | Glossary Off
Versions: 1 2 3 4 5 6 7 8 9 10 11 12 13 14 15 16 17 18 19 20 21 22 23 24 25 26 27 28 29 30 31 32 33 34 35 36 37 38 39 40 41 42 43 44 45 46 47 48 49 50

000
ASUS42 KCHS 280512
RWRCHS

REGIONAL WEATHER ROUNDUP
NATIONAL WEATHER SERVICE CHARLESTON SC
100 AM EDT SUN MAY 28 2017

NOTE: "FAIR" INDICATES FEW OR NO CLOUDS BELOW 12,000 FEET WITH NO
SIGNIFICANT WEATHER AND/OR OBSTRUCTIONS TO VISIBILITY.

NOT ALL STATIONS ARE QUALITY CONTROLLED. USE DATA WITH CAUTION...
ESPECIALLY DEWPOINT OBSERVATIONS.

SCZ027-030-031-034>040-042>050-280600-
...SOUTHEAST SOUTH CAROLINA...

CITY           SKY/WX    TMP DP  RH WIND       PRES   REMARKS
N CHARLESTON   PTCLDY    74  69  85 SW7       29.93F
WATERFRONT PRK   N/A     77  72  84 SW5       29.92F
JOHNS ISLAND   FAIR      75  72  88 SW6       29.94F
PINOPOLIS        N/A     79  64  61 SW6       29.85F
MONCKS CORNER  FAIR      68  66  94 CALM      29.93S
SUMMERVILLE    FAIR      68  64  88 CALM      29.95S
BEAUFORT MCAS  CLEAR     74  71  91 SW6       29.95F
BEAUFORT ARPT  NOT AVBL
HILTON HEAD IS PTCLDY    77  72  83 SW5       29.97F
WALTERBORO     CLEAR     70  63  78 SW3       29.95S
ALLENDALE      FAIR      70  64  83 CALM      29.93F

...SOUTHERN MIDLANDS AND PEE DEE...

CITY           SKY/WX    TMP DP  RH WIND       PRES   REMARKS
GEORGETOWN     FAIR      72  70  94 SW6       29.93F
KINGSTREE      FAIR      70  63  78 CALM      29.92S
ORANGEBURG     CLOUDY    69  61  75 SW6       29.92F
BARNWELL       FAIR      72  64  78 SW6       29.94F
AIKEN          FAIR      72  61  68 SW7       29.98S
MANNING        FAIR      68  64  88 SW3       29.92S
COLUMBIA       PTCLDY    75  59  57 W6        29.91F
SUMTER         CLOUDY    74  60  63 W6        29.89S
FLORENCE       CLOUDY    75  66  73 CALM      29.91S
MYRTLE BEACH   CLOUDY    76  69  79 SW7       29.93
N MYRTLE BEACH CLOUDY    74  71  91 W3        29.91S

$$

GAZ063-065-086>088-099>101-113>116-118-119-134>141-150-280600-
...SOUTHEAST GEORGIA...

CITY           SKY/WX    TMP DP  RH WIND       PRES   REMARKS
SAVANNAH ARPT  CLEAR     72  65  78 CALM      29.97S
HUNTER AAF     CLEAR     73  72  96 CALM      29.94S
FORT STEWART   PTCLDY    69  63  79 CALM      29.95S
STATESBORO     PTCLDY    70  68  93 CALM      29.97S
SYLVANIA       CLEAR     70  66  89 CALM      29.96F
CLAXTON        FAIR     N/A N/A N/A CALM      29.97S

...CSRA...CENTRAL AND FAR SOUTHEAST GEORGIA...

CITY           SKY/WX    TMP DP  RH WIND       PRES   REMARKS
THOMSON        HAZE      72  65  80 W3        30.00F VSB 1/2
AUGUSTA-BUSH   CLOUDY    71  64  78 CALM      29.93F
AUGUSTA-DANIEL CLOUDY    77  61  57 VRB5      29.95F
SWAINSBORO     FAIR      70  64  83 CALM      29.97F
VIDALIA        CLEAR     75  64  69 CALM      29.98S
EASTMAN        FAIR      68  65  89 CALM      29.99F
HAZLEHURST     FAIR      72  67  83 CALM      29.97S
ALMA           CLEAR     66  63  90 CALM      29.97F
WAYCROSS       CLEAR     73  66  77 SW6       29.98S
JESUP          FAIR      68  59  73 CALM      29.97F
BAXLEY         FAIR      68  68 100 CALM      29.98S
BRUNSWICK      CLEAR     70  70 100 CALM      29.98S
SAINT SIMONS   CLEAR     77  70  79 SW6       29.98S

$$

SCZ027-028-034-036>038-045-046-048>050-GAZ119-141-280600-
...LAKE AND SUPPLEMENTAL COASTAL OBSERVATIONS...

STATION/POSITION TIME  TEMP    WIND        PRES    WAVE   SWELL
                       AIR SEA DIR/SP/G            HT/PER HT/PER/DIR
                 (UTC) (F)     (DEG/KT/KT) (MB)    (FT/S) (FT/S/D)
WINYAH BAY       NOT AVBL
LAKE MURRAY      0420   78     250/ 10/ 14 1012.2
ACE BASIN NERRS  0345   75        CALM     1015.0
FORT PULASKI     0448   76     230/  4/  5 1014.8F
SAPELO ISLAND    0400   77     210/  6     1015.0

$$

ANZ835-935-AMZ111-154-330-350-352-354-370-450-454-472-280600-
...C-MAN AND BUOY OBSERVATIONS...

STATION/POSITION TIME  TEMP    WIND        PRES    WAVE   SWELL
                       AIR SEA DIR/SP/G            HT/PER HT/PER/DIR
                 (UTC) (F)     (DEG/KT/KT) (MB)    (FT/S) (FT/S/D)
BUOY 41004       0450   76 75  220/ 12/ 16 1013.9F   3/ 7   2/140/ 7
BUOY 41008       0350   78 78  190/ 16/ 19 1014.8    3/ 4   2/100/ 8
FOLLY BEACH CMAN 0500   77     220/  8/ 11 1014.4F
CAPERS NEARSHORE 0408   81 77  230/ 14/ 17 1013.8F
FRIPP NEARSHORE  0408   78 78  230/ 14/ 17 1014.3F


STATION/POSITION TIME  TEMP    WIND        PRES    WAVE   SWELL
                       AIR SEA DIR/SP/G            HT/PER HT/PER/DIR
                 (UTC) (F)     (DEG/KT/KT) (MB)    (FT/S) (FT/S/D)
5E ST. MARYS GA  0430      79                N/A     3/ 4
FRYING PAN BUOY  0450   76 75  220/ 16/ 17 1012.9F   3/ 5   2/140/ 7
BUOY 41025       0450   77 77  230/ 14/ 16 1012.4R   3/ 4   2/170/ 7
CAPE LOOKOUT NC  0500   75     230/  8/ 11 1012.1F
BUOY 41002       0350   76 77  230/ 12/ 14 1015.8    3/ 6   2/160/ 6
BUOY 41010       0450   79 79  170/ 12/ 16 1016.1S   2/ 7   2/ 90/ 7
ST AUGUSTINE FL  0500   73 78  230/  3/  5 1016.6F


$$




USA.gov is the U.S. government's official web portal to all federal, state and local government web resources and services.